Regional Weather Roundup
Issued by NWS

Home | Current Version | Previous Version | Graphics & Text | Print | Product List | Glossary Off
Versions: 1 2 3 4 5 6 7 8 9 10 11 12 13 14 15 16 17 18 19 20 21 22 23 24 25 26 27 28 29 30 31 32 33 34 35 36 37 38 39 40 41 42 43 44 45 46 47 48 49 50

000
ASUS43 KMPX 211810
RWRMN
WEATHER ROUNDUP FOR MINNESOTA
NATIONAL WEATHER SERVICE TWIN CITIES/CHANHASSEN MN
100 PM CDT THU AUG 21 2014


NOTE: "FAIR" INDICATES FEW OR NO CLOUDS BELOW 12,000 FEET WITH NO
SIGNIFICANT WEATHER AND/OR OBSTRUCTIONS TO VISIBILITY. N/A MEANS
CURRENT SKY AND/OR WEATHER CONDITIONS ARE NOT AVAILABLE.

MNZ060>063-068>070-211900-
   Twin Cities Metro

CITY           SKY/WX    TMP DP  RH WIND       PRES   REMARKS
TWIN CITIES    PTSUNNY   82  71  69 SE8       29.76F
6HR MIN TEMP:  70; 6HR MAX TEMP:  82; 6HR PCP:  0.04;

ST PAUL        CLOUDY    79  71  76 SE8       29.76F
CRYSTAL        PTSUNNY   82  70  66 SE9       29.75F
BLAINE         CLOUDY    79  73  83 E8        29.78S
LAKEVILLE      PTSUNNY   82  72  69 S10G16    29.76F
EDEN PRAIRIE   PTSUNNY   84  73  70 S10       29.74F HX  91
6HR MIN TEMP:  71; 6HR MAX TEMP:  84; 6HR PCP:  0.06;

SOUTH ST PAUL  PTSUNNY   81  70  69 SE8       29.76F
LAKE ELMO      CLOUDY    77  72  83 E5        29.79F
$$
MNZ001>005-007-008-013>017-022>024-027-028-211900-
   Northwest Minnesota

CITY           SKY/WX    TMP DP  RH WIND       PRES   REMARKS
BEMIDJI        CLOUDY    70  64  81 SE9       29.83S
HALLOCK        PTSUNNY   73  66  78 E9        29.79F
ROSEAU         PTSUNNY   66  63  88 E7        29.84R
WARROAD        CLOUDY    66  63  88 E10       29.85S
THIEF RVR FALL CLOUDY    75  66  73 S3        29.79S
CROOKSTON      PTSUNNY   77  66  69 CALM      29.78S
FOSSTON        CLOUDY    73  64  73 S6        29.81S
DETROIT LAKES  PTSUNNY   72  66  83 SE7       29.81S
MOORHEAD       PTSUNNY   75  73  94 E7        29.77S
PARK RAPIDS    CLOUDY    73  67  81 E7        29.81S
MAHNOMEN       CLOUDY    74  66  75 SE3       29.79S
$$
MNZ006-009>011-018-025>026-211900-
   North Central Minnesota

CITY           SKY/WX    TMP DP  RH WIND       PRES   REMARKS
BAUDETTE       CLOUDY    66  62  87 E9        29.85S
FLAG ISLAND    CLOUDY    64  61  88 E7        29.85S
INTL FALLS     CLOUDY    69  60  73 E12       29.88S
6HR MIN TEMP:  59; 6HR MAX TEMP:  70;

WASKISH        PTSUNNY   72  64  78 E6        29.83F
BIG FORK       PTSUNNY   72  64  78 SE9       29.86F
LONGVILLE      CLOUDY    70  64  83 E7        29.85R
GRAND RAPIDS   CLOUDY    70  63  78 SE9G16    29.86S
CRANE LAKE     CLOUDY    66  61  82 CALM      29.91R
ORR            CLOUDY    70  59  68 E6        29.87R
COOK           CLOUDY    70  61  73 SE6       29.90R
WALKER         CLOUDY    68  64  88 E5        29.84R
$$
MNZ012-019>021-037-211900-
   Northeast Minnesota

CITY           SKY/WX    TMP DP  RH WIND       PRES   REMARKS
DULUTH         CLOUDY    65  60  84 E14       29.89R
6HR MIN TEMP:  60; 6HR MAX TEMP:  66; 6HR PCP: TRACE;

ELY            CLOUDY    68  59  73 SE10      29.92R
HIBBING        CLOUDY    72  62  71 SE14      29.88S
EVELETH        PTSUNNY   70  61  73 SE8       29.91R
DULUTH HARBOR  CLOUDY    63  61  94 NE20G25   29.88S
TWO HARBORS    CLOUDY    63  57  82 NE12G18   29.89F
SILVER BAY     CLOUDY    61  61 100 NE10      29.92R
GRAND MARAIS     N/A     62  59  90 E10       29.94F
G MARAIS ARPRT   N/A     64  55  72 E6        29.97F
$$
MNZ029>031-032-039>041-046>048-054>057-064-211900-
   West Central Minnesota

CITY           SKY/WX    TMP DP  RH WIND       PRES   REMARKS
FERGUS FALLS   CLOUDY    73  70  88 E3        29.76F
WHEATON        MOSUNNY   75  68  78 NW6       29.77F
MORRIS         SUNNY     79  70  73 W5        29.75F
ALEXANDRIA     CLOUDY    73  70  90 SE5       29.80S FOG
ELBOW LAKE     CLOUDY    73  70  88 E3        29.77F
WADENA         CLOUDY    72  66  83 E5        29.80S
APPLETON       MOSUNNY   82  72  69 NW5       29.75S
BENSON         PTSUNNY   79  72  78 NW3       29.75F
ORTONVILLE     MOSUNNY   81  72  74 NW6       29.75F
MADISON        SUNNY     84  73  70 NW5       29.75R HX  91
WILLMAR        FAIR      81  73  78 NW7       29.76R
$$
MNZ033>034-036-042>043-049>051-058-059-211900-
   Central Minnesota

CITY           SKY/WX    TMP DP  RH WIND       PRES   REMARKS
ST CLOUD       CLOUDY    74  69  85 E6        29.78S
6HR MIN TEMP:  68; 6HR MAX TEMP:  74; 6HR PCP: TRACE;

SAUK CENTRE    CLOUDY    74  69  86 E6        29.79S
PAYNESVILLE    CLOUDY    74  70  86 CALM      29.77S
AITKIN         CLOUDY    68  63  83 E6        29.84S
PINE RIVER     CLOUDY    66  66 100 E9        29.87S
BRAINERD       CLOUDY    68  65  90 E7        29.82F
STAPLES        CLOUDY    72  66  83 E6        29.81S
LONG PRAIRIE   CLOUDY    70  68  94 NE7       29.80S FOG
LITTLE FALLS   CLOUDY    68  66  94 E5        29.80S FOG
LITCHFIELD     CLOUDY    81  75  83 CALM      29.76R
BUFFALO        MOSUNNY   80  70  73 NE7       29.77F
MAPLE LAKE     MOSUNNY   80  74  82 E8        29.77F
$$
MNZ037-044-045-052-053-211900-
   East Central Minnesota

CITY           SKY/WX    TMP DP  RH WIND       PRES   REMARKS
PRINCETON      CLOUDY    73  70  88 E7        29.80S
MORA           LGT RAIN  70  68  94 E3        29.84R
CAMBRIDGE      PTSUNNY   75  64  69 E3        29.79S
RUSH CITY      CLOUDY    72  68  86 CALM      29.82S
MOOSE LAKE     CLOUDY    64  63  94 NE7       29.84S
HINCKLEY       CLOUDY    72  68  88 E8        29.83S
CLOQUET        CLOUDY    64  61  88 E8        29.88S
MCGREGOR       CLOUDY    66  63  88 E10       29.86F
$$
MNZ071>073-080-081-089-090-097-098-211900-
   Southwest Minnesota

CITY           SKY/WX    TMP DP  RH WIND       PRES   REMARKS
MONTEVIDEO     MOSUNNY   84  82  94 N5        29.75S HX 101
GRANITE FALLS  PTSUNNY  N/A N/A N/A W9        29.75R
CANBY          MOSUNNY   87  71  60 W14       29.75S HX  92
MARSHALL       MOSUNNY   88  73  62 NW12      29.73S HX  96
REDWOOD FALLS  PTSUNNY   85  74  69 W7        29.72S HX  92
OLIVIA         CLOUDY    81  72  74 SW5       29.73S
PIPESTONE      MOSUNNY   84  75  74 W3        29.78S HX  92
WINDOM         SUNNY     84  68  58 SW16G22   29.76F
JACKSON        SUNNY     84  68  58 SW14G21   29.79S
TRACY          PTSUNNY   86  75  71 SW5       29.75S HX  95
SLAYTON        SUNNY     83  74  72 SW7       29.78S HX  90
$$
MNZ065>067-074>077-082>085-091>093-211900-
   South Central Minnesota

CITY           SKY/WX    TMP DP  RH WIND       PRES   REMARKS
MANKATO        SUNNY     82  70  65 S14G21    29.76S
NEW ULM        SUNNY     84  75  74 S17       29.74S HX  92
ST JAMES       SUNNY     84  72  65 S10       29.77S
FAIRMONT       MOSUNNY   82  66  57 MISG      29.78R
GLENCOE        PTSUNNY   85  72  65 S8        29.74S HX  91
FARIBAULT      MOSUNNY   86  68  54 S9G16     29.77F
OWATONNA       MOSUNNY   82  70  65 S12       29.78F
WASECA         MOSUNNY   81  68  65 S10       29.79F
ALBERT LEA     PTSUNNY   73  73 100 S12G17    29.78F
$$
MNZ078>079-086>088-094>096-211900-
   Southeast Minnesota

CITY           SKY/WX    TMP DP  RH WIND       PRES   REMARKS
ROCHESTER      MOSUNNY   77  70  79 S12       29.82F
6HR MIN TEMP:  69; 6HR MAX TEMP:  78; 6HR PCP:  0.74;

RED WING       CLOUDY    81  72  74 SE8       29.77F
STANTON        CLOUDY    81  70  68 S9        29.77S
DODGE CENTER   MOSUNNY   79  72  78 SW13      29.81F
WINONA         CLOUDY    77  70  78 SE7       29.82F
AUSTIN         PTSUNNY   75  72  88 S10       29.80F
PRESTON        PTSUNNY   76  74  95 S12G22    29.84F
$$
ABBREVIATIONS USED IN REMARKS
   TC - TEMPERATURES IN CELSIUS
  WCI - WIND CHILL INDEX
   HX - HEAT INDEX
  VSB - VISIBILITY
$$



USA.gov is the U.S. government's official web portal to all federal, state and local government web resources and services.